NOZ1359 EGPH-ENBR

Flight info

Callsign NOZ1359
Flight time 1h 31m
Altitude 35000
Route GRICE4D GRICE P600 ASNUD DCT BEREP DCT MODNI MODNI2N
Aircraft B738/M-SDE2E3FGHIRWXY/LB1

Departure

Time 2026-05-06 18:37
Airport Edinburgh Airport (EGPH)

Arrival

Time 2026-05-06 20:08
Airport Bergen Airport, Flesland (ENBR)
Time Latitude Longitude Altitude Speed Heading
2026-05-06 18:03 55.94792 -3.35601 115 ft 0 kts 208°
2026-05-06 18:10 55.94702 -3.36603 114 ft 0 kts 89°
2026-05-06 18:28 55.94702 -3.36631 111 ft 4 kts 89°
2026-05-06 18:28 55.94702 -3.36672 112 ft 3 kts 89°
2026-05-06 18:29 55.94697 -3.36715 111 ft 4 kts 50°
2026-05-06 18:29 55.94677 -3.36735 111 ft 4 kts
2026-05-06 18:29 55.94667 -3.36735 111 ft 0 kts 359°
2026-05-06 18:31 55.94669 -3.36735 111 ft 2 kts 359°
2026-05-06 18:32 55.94720 -3.36736 114 ft 12 kts 359°
2026-05-06 18:32 55.94810 -3.36775 115 ft 14 kts 355°
2026-05-06 18:32 55.94899 -3.36808 112 ft 13 kts 331°
2026-05-06 18:32 55.94916 -3.36930 114 ft 11 kts 243°
2026-05-06 18:33 55.94870 -3.37068 113 ft 15 kts 240°
2026-05-06 18:33 55.94818 -3.37227 112 ft 15 kts 242°
2026-05-06 18:33 55.94765 -3.37376 115 ft 14 kts 239°
2026-05-06 18:33 55.94715 -3.37520 115 ft 13 kts 236°
2026-05-06 18:34 55.94667 -3.37655 114 ft 13 kts 237°
2026-05-06 18:34 55.94613 -3.37801 112 ft 16 kts 238°
2026-05-06 18:34 55.94549 -3.38000 114 ft 23 kts 239°
2026-05-06 18:34 55.94454 -3.38279 112 ft 28 kts 239°
2026-05-06 18:35 55.94359 -3.38564 115 ft 26 kts 239°
2026-05-06 18:35 55.94290 -3.38774 113 ft 14 kts 247°
2026-05-06 18:35 55.94281 -3.38834 115 ft 0 kts 266°
2026-05-06 18:35 55.94295 -3.38868 112 ft 9 kts 321°
2026-05-06 18:36 55.94354 -3.38938 113 ft 11 kts 323°
2026-05-06 18:36 55.94422 -3.38949 112 ft 11 kts 52°
2026-05-06 18:36 55.94494 -3.38745 112 ft 45 kts 58°
2026-05-06 18:36 55.94787 -3.37882 112 ft 115 kts 59°
2026-05-06 18:37 55.95298 -3.36353 162 ft 167 kts 62°
2026-05-06 18:37 55.95926 -3.34483 755 ft 179 kts 58°
2026-05-06 18:37 55.96816 -3.32847 1473 ft 193 kts 43°
2026-05-06 18:37 55.97886 -3.31181 1916 ft 212 kts 44°
2026-05-06 18:38 55.99004 -3.29392 2354 ft 224 kts 44°
2026-05-06 18:38 56.00359 -3.27725 2586 ft 251 kts 27°
2026-05-06 18:38 56.02088 -3.26799 3118 ft 266 kts
2026-05-06 18:38 56.03934 -3.27037 3941 ft 268 kts 342°
2026-05-06 18:39 56.05580 -3.28510 4762 ft 269 kts 320°
2026-05-06 18:39 56.06832 -3.31022 5506 ft 270 kts 298°
2026-05-06 18:39 56.07532 -3.34103 5995 ft 267 kts 283°
2026-05-06 18:40 56.08265 -3.40566 6031 ft 266 kts 280°
2026-05-06 18:40 56.08654 -3.43793 6620 ft 268 kts 281°
2026-05-06 18:40 56.09072 -3.47032 7492 ft 267 kts 282°
2026-05-06 18:40 56.09506 -3.50287 8282 ft 269 kts 282°
2026-05-06 18:41 56.09953 -3.53556 9033 ft 273 kts 285°
2026-05-06 18:41 56.10718 -3.56699 9786 ft 277 kts 296°
2026-05-06 18:41 56.11652 -3.59757 10412 ft 285 kts 297°
2026-05-06 18:41 56.12716 -3.62928 10571 ft 309 kts 307°
2026-05-06 18:42 56.14401 -3.65549 10758 ft 334 kts 327°
2026-05-06 18:42 56.16599 -3.67163 11145 ft 349 kts 344°
2026-05-06 18:42 56.19052 -3.67411 11740 ft 359 kts
2026-05-06 18:42 56.21467 -3.66165 12469 ft 365 kts 24°
2026-05-06 18:43 56.23610 -3.63753 13156 ft 371 kts 34°
2026-05-06 18:43 56.25701 -3.60960 13842 ft 377 kts 35°
2026-05-06 18:43 56.27813 -3.58102 14448 ft 381 kts 35°
2026-05-06 18:43 56.29956 -3.55255 15126 ft 384 kts 34°
2026-05-06 18:44 56.32136 -3.52453 15810 ft 387 kts 33°
2026-05-06 18:44 56.34360 -3.49628 16473 ft 391 kts 33°
2026-05-06 18:44 56.36597 -3.46781 17132 ft 395 kts 33°
2026-05-06 18:44 56.38850 -3.43883 17773 ft 399 kts 33°
2026-05-06 18:45 56.41085 -3.40972 18360 ft 404 kts 33°
2026-05-06 18:45 56.43381 -3.37973 18909 ft 408 kts 33°
2026-05-06 18:45 56.45701 -3.34981 19498 ft 410 kts 32°
2026-05-06 18:45 56.48063 -3.32045 20071 ft 412 kts 31°
2026-05-06 18:46 56.50447 -3.29122 20619 ft 416 kts 31°
2026-05-06 18:46 56.52850 -3.26177 21154 ft 419 kts 30°
2026-05-06 18:46 56.55270 -3.23198 21679 ft 423 kts 30°
2026-05-06 18:46 56.57708 -3.20181 22176 ft 426 kts 30°
2026-05-06 18:47 56.60171 -3.17123 22683 ft 430 kts 30°
2026-05-06 18:47 56.62644 -3.14044 23195 ft 433 kts 30°
2026-05-06 18:47 56.65131 -3.10941 23671 ft 436 kts 30°
2026-05-06 18:47 56.67639 -3.07805 24085 ft 438 kts 30°
2026-05-06 18:48 56.70096 -3.04498 24534 ft 443 kts 36°
2026-05-06 18:48 56.72334 -3.00601 24988 ft 447 kts 41°
2026-05-06 18:48 56.74509 -2.96527 25398 ft 449 kts 41°
2026-05-06 18:48 56.76671 -2.92399 25794 ft 451 kts 42°
2026-05-06 18:49 56.78838 -2.88246 26238 ft 451 kts 41°
2026-05-06 18:49 56.81011 -2.84106 26699 ft 452 kts 41°
2026-05-06 18:49 56.83206 -2.79953 26937 ft 458 kts 41°
2026-05-06 18:49 56.85432 -2.75765 27233 ft 461 kts 40°
2026-05-06 18:50 56.87674 -2.71551 27642 ft 462 kts 40°
2026-05-06 18:50 56.89912 -2.67345 28079 ft 462 kts 40°
2026-05-06 18:50 56.92157 -2.63121 28409 ft 464 kts 40°
2026-05-06 18:50 56.94417 -2.58866 28733 ft 467 kts 40°
2026-05-06 18:51 56.96681 -2.54595 29062 ft 469 kts 40°
2026-05-06 18:51 56.98953 -2.50299 29404 ft 470 kts 40°
2026-05-06 18:51 57.01230 -2.45985 29731 ft 472 kts 40°
2026-05-06 18:51 57.03508 -2.41660 30138 ft 471 kts 40°
2026-05-06 18:52 57.05778 -2.37335 30576 ft 468 kts 40°
2026-05-06 18:52 57.07994 -2.33103 31058 ft 463 kts 40°
2026-05-06 18:52 57.10217 -2.28847 31537 ft 461 kts 40°
2026-05-06 18:52 57.12444 -2.24589 31770 ft 463 kts 40°
2026-05-06 18:53 57.14682 -2.20308 32019 ft 464 kts 40°
2026-05-06 18:53 57.16912 -2.16031 32412 ft 462 kts 40°
2026-05-06 18:53 57.19126 -2.11768 32864 ft 458 kts 40°
2026-05-06 18:53 57.21318 -2.07540 33264 ft 456 kts 39°
2026-05-06 18:54 57.23511 -2.03306 33581 ft 455 kts 39°
2026-05-06 18:54 57.25632 -1.99205 33885 ft 454 kts 39°
2026-05-06 18:54 57.27810 -1.94986 34187 ft 453 kts 39°
2026-05-06 18:54 57.29989 -1.90759 34377 ft 455 kts 39°
2026-05-06 18:55 57.32176 -1.86511 34509 ft 457 kts 40°
2026-05-06 18:55 57.34372 -1.82234 34706 ft 458 kts 40°
2026-05-06 18:55 57.36568 -1.77947 34920 ft 458 kts 41°
2026-05-06 18:55 57.38762 -1.73657 35043 ft 461 kts 41°
2026-05-06 18:56 57.40954 -1.69365 35040 ft 465 kts 41°
2026-05-06 18:56 57.45420 -1.60590 35052 ft 468 kts 41°
2026-05-06 18:57 57.49875 -1.51793 35045 ft 467 kts 41°
2026-05-06 18:57 57.54320 -1.42988 35051 ft 465 kts 41°
2026-05-06 18:58 57.58743 -1.34196 35051 ft 465 kts 41°
2026-05-06 18:58 57.63153 -1.25399 35049 ft 464 kts 41°
2026-05-06 18:59 57.67533 -1.16630 35060 ft 467 kts 42°
2026-05-06 18:59 57.71994 -1.07667 35068 ft 475 kts 43°
2026-05-06 19:00 57.76431 -0.98714 35058 ft 476 kts 42°
2026-05-06 19:00 57.80932 -0.89595 35057 ft 477 kts 43°
2026-05-06 19:01 57.85428 -0.80438 35050 ft 477 kts 43°
2026-05-06 19:01 57.89916 -0.71269 35056 ft 476 kts 43°
2026-05-06 19:02 57.94389 -0.62095 35064 ft 475 kts 43°
2026-05-06 19:02 57.98822 -0.52968 35062 ft 475 kts 43°
2026-05-06 19:03 58.03270 -0.43778 35059 ft 475 kts 43°
2026-05-06 19:03 58.07716 -0.34555 35061 ft 474 kts 43°
2026-05-06 19:04 58.12149 -0.25319 35060 ft 475 kts 43°
2026-05-06 19:04 58.16586 -0.16038 35058 ft 475 kts 43°
2026-05-06 19:05 58.21012 -0.06741 35090 ft 476 kts 43°
2026-05-06 19:05 58.25376 0.02458 35070 ft 478 kts 44°
2026-05-06 19:06 58.29803 0.11828 35067 ft 480 kts 44°
2026-05-06 19:06 58.34275 0.21334 35068 ft 483 kts 44°
2026-05-06 19:07 58.38758 0.30904 35069 ft 485 kts 44°
2026-05-06 19:07 58.42488 0.38896 35065 ft 486 kts 44°
2026-05-06 19:08 58.46986 0.48570 35059 ft 487 kts 44°
2026-05-06 19:08 58.51485 0.58287 35065 ft 488 kts 44°
2026-05-06 19:09 58.55983 0.68043 35056 ft 489 kts 44°
2026-05-06 19:09 58.60474 0.77828 35066 ft 489 kts 44°
2026-05-06 19:10 58.64960 0.87640 35068 ft 489 kts 44°
2026-05-06 19:10 58.69445 0.97490 35061 ft 489 kts 44°
2026-05-06 19:11 58.73793 1.07081 35061 ft 489 kts 45°
2026-05-06 19:11 58.78255 1.16963 35061 ft 489 kts 45°
2026-05-06 19:12 58.82714 1.26884 35064 ft 489 kts 45°
2026-05-06 19:12 58.87163 1.36821 35057 ft 489 kts 45°
2026-05-06 19:13 58.91605 1.46787 35053 ft 489 kts 45°
2026-05-06 19:13 58.96037 1.56769 35063 ft 489 kts 45°
2026-05-06 19:14 59.00467 1.66786 35058 ft 489 kts 45°
2026-05-06 19:14 59.04902 1.76815 35065 ft 490 kts 44°
2026-05-06 19:15 59.09435 1.86590 35066 ft 489 kts 43°
2026-05-06 19:15 59.14036 1.96382 35055 ft 490 kts 43°
2026-05-06 19:16 59.18549 2.06077 35056 ft 490 kts 43°
2026-05-06 19:16 59.20847 2.11046 34634 ft 497 kts 43°
2026-05-06 19:16 59.23160 2.16068 34047 ft 497 kts 43°
2026-05-06 19:16 59.25469 2.21100 33310 ft 497 kts 43°
2026-05-06 19:17 59.27770 2.26127 32603 ft 496 kts 43°
2026-05-06 19:17 59.30074 2.31174 31980 ft 495 kts 43°
2026-05-06 19:17 59.32360 2.36193 31463 ft 490 kts 43°
2026-05-06 19:17 59.34617 2.41161 30966 ft 486 kts 42°
2026-05-06 19:18 59.36850 2.46085 30466 ft 481 kts 42°
2026-05-06 19:18 59.39060 2.50966 29970 ft 476 kts 42°
2026-05-06 19:18 59.41221 2.55744 29426 ft 471 kts 42°
2026-05-06 19:18 59.43404 2.60584 28926 ft 464 kts 43°
2026-05-06 19:19 59.45532 2.65309 28439 ft 459 kts 43°
2026-05-06 19:19 59.47635 2.69988 27947 ft 454 kts 43°
2026-05-06 19:19 59.49717 2.74629 27466 ft 450 kts 43°
2026-05-06 19:19 59.51728 2.79119 26997 ft 446 kts 43°
2026-05-06 19:20 59.53769 2.83684 26514 ft 443 kts 43°
2026-05-06 19:20 59.55800 2.88234 26059 ft 441 kts 43°
2026-05-06 19:20 59.57818 2.92765 25634 ft 437 kts 43°
2026-05-06 19:20 59.59820 2.97270 25152 ft 435 kts 43°
2026-05-06 19:21 59.61747 3.01618 24696 ft 432 kts 43°
2026-05-06 19:21 59.63721 3.06080 24234 ft 430 kts 43°
2026-05-06 19:21 59.65685 3.10527 23753 ft 429 kts 43°
2026-05-06 19:21 59.67638 3.14958 23240 ft 427 kts 43°
2026-05-06 19:22 59.69583 3.19382 22733 ft 424 kts 43°
2026-05-06 19:22 59.71509 3.23771 22252 ft 421 kts 43°
2026-05-06 19:22 59.73419 3.28132 21811 ft 417 kts 43°
2026-05-06 19:22 59.75316 3.32469 21348 ft 415 kts 43°
2026-05-06 19:23 59.77201 3.36787 20895 ft 413 kts 43°
2026-05-06 19:23 59.79077 3.41090 20444 ft 411 kts 43°
2026-05-06 19:23 59.80940 3.45373 20086 ft 407 kts 43°
2026-05-06 19:23 59.82768 3.49589 19738 ft 401 kts 43°
2026-05-06 19:24 59.84593 3.53797 19209 ft 402 kts 44°
2026-05-06 19:24 59.86417 3.58009 18700 ft 401 kts 44°
2026-05-06 19:24 59.88231 3.62210 18248 ft 398 kts 44°
2026-05-06 19:24 59.90012 3.66346 17741 ft 390 kts 44°
2026-05-06 19:25 59.91762 3.70419 17318 ft 381 kts 44°
2026-05-06 19:25 59.93469 3.74396 16878 ft 374 kts 44°
2026-05-06 19:25 59.95148 3.78309 16478 ft 370 kts 44°
2026-05-06 19:25 59.96811 3.82190 16058 ft 366 kts 44°
2026-05-06 19:26 59.98463 3.86048 15658 ft 366 kts 44°
2026-05-06 19:26 60.00116 3.89913 15259 ft 367 kts 45°
2026-05-06 19:26 60.01768 3.93793 14851 ft 365 kts 45°
2026-05-06 19:26 60.03408 3.97654 14447 ft 361 kts 44°
2026-05-06 19:27 60.05050 4.01100 14163 ft 352 kts 38°
2026-05-06 19:27 60.06853 4.04371 13781 ft 348 kts 36°
2026-05-06 19:27 60.08653 4.07511 13355 ft 346 kts 36°
2026-05-06 19:27 60.10459 4.10673 12951 ft 344 kts 37°
2026-05-06 19:28 60.12252 4.13853 12574 ft 342 kts 39°
2026-05-06 19:28 60.14016 4.17023 12177 ft 339 kts 39°
2026-05-06 19:28 60.15766 4.20197 11780 ft 337 kts 39°
2026-05-06 19:28 60.17500 4.23356 11386 ft 335 kts 39°
2026-05-06 19:29 60.19216 4.26491 10995 ft 333 kts 40°
2026-05-06 19:29 60.20924 4.29617 10673 ft 329 kts 40°
2026-05-06 19:29 60.22593 4.32682 10551 ft 323 kts 40°
2026-05-06 19:29 60.24262 4.35747 10426 ft 326 kts 40°
2026-05-06 19:30 60.25941 4.38841 10297 ft 327 kts 40°
2026-05-06 19:30 60.27604 4.41911 10140 ft 319 kts 40°
2026-05-06 19:30 60.29218 4.44897 9963 ft 311 kts 40°
2026-05-06 19:30 60.30770 4.47766 9672 ft 308 kts 40°
2026-05-06 19:31 60.32364 4.50714 9336 ft 314 kts 40°
2026-05-06 19:31 60.33988 4.53726 9007 ft 320 kts 40°
2026-05-06 19:31 60.37068 4.60252 8362 ft 324 kts 58°
2026-05-06 19:32 60.38145 4.64213 8240 ft 320 kts 60°
2026-05-06 19:32 60.39450 4.67767 8058 ft 313 kts 38°
2026-05-06 19:32 60.41342 4.69736 7949 ft 302 kts 11°
2026-05-06 19:32 60.43359 4.70075 7942 ft 282 kts 352°
2026-05-06 19:33 60.45205 4.69208 7921 ft 265 kts 339°
2026-05-06 19:33 60.46972 4.68463 7903 ft 256 kts 357°
2026-05-06 19:33 60.48712 4.68568 7900 ft 245 kts 358°
2026-05-06 19:33 60.50394 4.68625 7889 ft 239 kts 357°
2026-05-06 19:34 60.52045 4.68848 7703 ft 240 kts 11°
2026-05-06 19:34 60.53624 4.70015 7370 ft 243 kts 19°
2026-05-06 19:34 60.55206 4.71266 7080 ft 243 kts 18°
2026-05-06 19:34 60.56793 4.72507 7032 ft 247 kts 22°
2026-05-06 19:35 60.58219 4.74493 7002 ft 250 kts 40°
2026-05-06 19:35 60.59507 4.76840 6995 ft 247 kts 39°
2026-05-06 19:35 60.60799 4.79122 6981 ft 244 kts 39°
2026-05-06 19:35 60.61914 4.81718 6984 ft 246 kts 59°
2026-05-06 19:36 60.62703 4.84838 6997 ft 250 kts 63°
2026-05-06 19:36 60.63129 4.88252 6981 ft 252 kts 94°
2026-05-06 19:36 60.62839 4.91764 7000 ft 252 kts 95°
2026-05-06 19:36 60.63041 4.95279 6952 ft 249 kts 75°
2026-05-06 19:37 60.63510 4.98647 6737 ft 247 kts 73°
2026-05-06 19:37 60.63987 5.01885 6458 ft 247 kts 72°
2026-05-06 19:37 60.64482 5.05220 6118 ft 245 kts 72°
2026-05-06 19:37 60.64808 5.07412 5891 ft 244 kts 72°
2026-05-06 19:38 60.65438 5.11644 5789 ft 225 kts 73°
2026-05-06 19:38 60.65866 5.14640 5667 ft 210 kts 80°
2026-05-06 19:38 60.65728 5.17443 5433 ft 200 kts 118°
2026-05-06 19:38 60.64800 5.19458 5078 ft 192 kts 158°
2026-05-06 19:39 60.63517 5.19731 5039 ft 191 kts 198°
2026-05-06 19:39 60.62345 5.18556 5012 ft 187 kts 213°
2026-05-06 19:39 60.61217 5.17243 4997 ft 184 kts 212°
2026-05-06 19:39 60.60105 5.15960 4996 ft 184 kts 212°
2026-05-06 19:40 60.58995 5.14678 4943 ft 182 kts 212°
2026-05-06 19:40 60.57901 5.13414 4704 ft 181 kts 212°
2026-05-06 19:40 60.56698 5.12637 4286 ft 188 kts 179°
2026-05-06 19:40 60.55412 5.13101 3995 ft 187 kts 174°
2026-05-06 19:41 60.54125 5.13457 3666 ft 186 kts 174°
2026-05-06 19:41 60.52843 5.13890 3354 ft 186 kts 173°
2026-05-06 19:41 60.51569 5.14329 3072 ft 184 kts 172°
2026-05-06 19:41 60.50280 5.14767 3037 ft 189 kts 173°
2026-05-06 19:42 60.48981 5.15206 3002 ft 188 kts 172°
2026-05-06 19:42 60.47704 5.15637 2993 ft 185 kts 173°
2026-05-06 19:42 60.46438 5.16065 2997 ft 184 kts 172°
2026-05-06 19:42 60.45169 5.16494 3000 ft 186 kts 172°
2026-05-06 19:43 60.43890 5.16923 2949 ft 188 kts 172°
2026-05-06 19:43 60.42588 5.17359 2727 ft 189 kts 172°
2026-05-06 19:43 60.41313 5.17784 2311 ft 187 kts 172°
2026-05-06 19:43 60.40076 5.18189 2113 ft 172 kts 172°
2026-05-06 19:44 60.38931 5.18589 1873 ft 163 kts 171°
2026-05-06 19:44 60.37830 5.18969 1648 ft 159 kts 172°
2026-05-06 19:44 60.36740 5.19320 1557 ft 163 kts 172°
2026-05-06 19:44 60.35609 5.19711 1309 ft 167 kts 171°
2026-05-06 19:45 60.34457 5.20096 957 ft 166 kts 171°
2026-05-06 19:45 60.33341 5.20509 732 ft 162 kts 172°
2026-05-06 19:45 60.32217 5.20866 533 ft 165 kts 171°
2026-05-06 19:45 60.31064 5.21260 390 ft 170 kts 172°
2026-05-06 19:46 60.29935 5.21597 688 ft 165 kts 173°
2026-05-06 19:46 60.28753 5.21991 1413 ft 177 kts 171°
2026-05-06 19:46 60.27482 5.22368 1902 ft 199 kts 174°
2026-05-06 19:46 60.26052 5.22780 2137 ft 213 kts 173°
2026-05-06 19:47 60.24568 5.23242 1969 ft 218 kts 172°
2026-05-06 19:47 60.23127 5.23711 2116 ft 213 kts 172°
2026-05-06 19:47 60.21661 5.24219 2030 ft 214 kts 171°
2026-05-06 19:47 60.20194 5.24728 2011 ft 214 kts 172°
2026-05-06 19:48 60.18747 5.24483 2378 ft 207 kts 207°
2026-05-06 19:48 60.17686 5.22637 2955 ft 205 kts 240°
2026-05-06 19:48 60.17177 5.19968 3004 ft 204 kts 256°
2026-05-06 19:48 60.16821 5.17209 2997 ft 203 kts 257°
2026-05-06 19:49 60.16479 5.14466 2997 ft 202 kts 257°
2026-05-06 19:49 60.16143 5.11739 2992 ft 199 kts 257°
2026-05-06 19:49 60.15814 5.09054 2993 ft 197 kts 257°
2026-05-06 19:49 60.15485 5.06370 2998 ft 197 kts 257°
2026-05-06 19:50 60.15158 5.03700 3005 ft 197 kts 257°
2026-05-06 19:50 60.14837 5.01064 3003 ft 197 kts 257°
2026-05-06 19:50 60.14510 4.98390 3001 ft 197 kts 257°
2026-05-06 19:50 60.14189 4.95708 3001 ft 197 kts 261°
2026-05-06 19:51 60.14318 4.93051 2993 ft 194 kts 297°
2026-05-06 19:51 60.15243 4.91144 3008 ft 196 kts 334°
2026-05-06 19:51 60.16545 4.90193 3008 ft 203 kts 341°
2026-05-06 19:51 60.17898 4.89369 3010 ft 203 kts 342°
2026-05-06 19:52 60.19250 4.88559 2999 ft 202 kts 342°
2026-05-06 19:52 60.20591 4.87760 2996 ft 201 kts 342°
2026-05-06 19:52 60.21477 4.87234 2994 ft 200 kts 342°
2026-05-06 19:52 60.22810 4.86444 2995 ft 200 kts 342°
2026-05-06 19:53 60.24141 4.85656 2991 ft 199 kts 342°
2026-05-06 19:53 60.25469 4.84869 2991 ft 198 kts 342°
2026-05-06 19:53 60.26789 4.84087 3001 ft 198 kts 342°
2026-05-06 19:53 60.28538 4.83047 3000 ft 197 kts 342°
2026-05-06 19:54 60.29427 4.82518 2999 ft 197 kts 342°
2026-05-06 19:54 60.30745 4.81735 2999 ft 197 kts 342°
2026-05-06 19:54 60.32060 4.80950 3000 ft 197 kts 342°
2026-05-06 19:54 60.33376 4.80166 3001 ft 198 kts 342°
2026-05-06 19:55 60.34698 4.79380 2999 ft 198 kts 342°
2026-05-06 19:55 60.36021 4.78594 3004 ft 199 kts 342°
2026-05-06 19:55 60.37350 4.77808 3002 ft 199 kts 342°
2026-05-06 19:55 60.38688 4.77017 2997 ft 201 kts 342°
2026-05-06 19:56 60.40010 4.76237 3001 ft 201 kts 342°
2026-05-06 19:56 60.41356 4.75441 3001 ft 202 kts 342°
2026-05-06 19:56 60.42706 4.74641 3004 ft 202 kts 342°
2026-05-06 19:56 60.44013 4.73864 3001 ft 203 kts 342°
2026-05-06 19:57 60.45370 4.73057 3000 ft 203 kts 342°
2026-05-06 19:57 60.46731 4.72250 3007 ft 204 kts 341°
2026-05-06 19:57 60.48146 4.72004 2982 ft 210 kts 11°
2026-05-06 19:57 60.49408 4.73444 2998 ft 212 kts 45°
2026-05-06 19:58 60.50396 4.75643 2995 ft 211 kts 47°
2026-05-06 19:58 60.51373 4.77844 2991 ft 208 kts 47°
2026-05-06 19:58 60.52339 4.80029 2982 ft 206 kts 47°
2026-05-06 19:58 60.53293 4.82193 2985 ft 204 kts 47°
2026-05-06 19:59 60.54238 4.84340 2987 ft 203 kts 47°
2026-05-06 19:59 60.55166 4.86450 2991 ft 204 kts 47°
2026-05-06 19:59 60.56117 4.88614 3005 ft 207 kts 47°
2026-05-06 19:59 60.57076 4.90793 2997 ft 204 kts 47°
2026-05-06 20:00 60.57995 4.92889 2973 ft 192 kts 47°
2026-05-06 20:00 60.58766 4.95001 2966 ft 183 kts 71°
2026-05-06 20:00 60.58838 4.97534 3021 ft 184 kts 99°
2026-05-06 20:00 60.58658 5.00179 3038 ft 192 kts 97°
2026-05-06 20:01 60.58489 5.02887 3025 ft 192 kts 97°
2026-05-06 20:01 60.58323 5.05565 3001 ft 188 kts 98°
2026-05-06 20:01 60.57855 5.07966 2977 ft 182 kts 135°
2026-05-06 20:01 60.56828 5.09491 3005 ft 187 kts 148°
2026-05-06 20:02 60.55742 5.10965 3016 ft 189 kts 147°
2026-05-06 20:02 60.54657 5.12448 3007 ft 187 kts 147°
2026-05-06 20:02 60.53499 5.13584 2984 ft 184 kts 169°
2026-05-06 20:02 60.52253 5.14028 2993 ft 182 kts 171°
2026-05-06 20:03 60.51009 5.14497 2995 ft 181 kts 171°
2026-05-06 20:03 60.49756 5.14940 3001 ft 184 kts 172°
2026-05-06 20:03 60.48487 5.15375 3011 ft 186 kts 172°
2026-05-06 20:03 60.47213 5.15806 2996 ft 186 kts 172°
2026-05-06 20:04 60.45952 5.16218 3021 ft 184 kts 172°
2026-05-06 20:04 60.44713 5.16632 2979 ft 171 kts 172°
2026-05-06 20:04 60.43589 5.17007 3168 ft 162 kts 173°
2026-05-06 20:04 60.42438 5.17386 3009 ft 172 kts 172°
2026-05-06 20:05 60.41272 5.17792 2645 ft 167 kts 172°
2026-05-06 20:05 60.40134 5.18184 2190 ft 164 kts 172°
2026-05-06 20:05 60.39032 5.18563 1928 ft 157 kts 172°
2026-05-06 20:05 60.37965 5.18919 1734 ft 157 kts 172°
2026-05-06 20:06 60.36867 5.19285 1559 ft 163 kts 172°
2026-05-06 20:06 60.35754 5.19659 1348 ft 161 kts 172°
2026-05-06 20:06 60.34665 5.20018 1035 ft 156 kts 171°
2026-05-06 20:06 60.33622 5.20378 846 ft 151 kts 171°
2026-05-06 20:07 60.32597 5.20723 651 ft 148 kts 170°
2026-05-06 20:07 60.31583 5.21074 445 ft 148 kts 170°
2026-05-06 20:07 60.30571 5.21414 238 ft 147 kts 170°
2026-05-06 20:07 60.29598 5.21733 172 ft 129 kts 171°
2026-05-06 20:08 60.28858 5.21977 173 ft 86 kts 171°
2026-05-06 20:08 60.28497 5.22096 180 ft 44 kts 171°
2026-05-06 20:08 60.28319 5.22157 183 ft 13 kts 161°
2026-05-06 20:08 60.28281 5.22315 181 ft 14 kts 88°
2026-05-06 20:09 60.28321 5.22468 180 ft 13 kts 21°
2026-05-06 20:09 60.28408 5.22451 179 ft 13 kts 350°
2026-05-06 20:09 60.28514 5.22415 173 ft 16 kts 350°
2026-05-06 20:09 60.28624 5.22380 173 ft 16 kts 351°
2026-05-06 20:10 60.28691 5.22443 173 ft 11 kts 43°
2026-05-06 20:10 60.28756 5.22508 173 ft 10 kts 34°
2026-05-06 20:10 60.28815 5.22588 173 ft 7 kts 33°
2026-05-06 20:10 60.28816 5.22589 173 ft 0 kts 33°
2026-05-06 20:11 60.28828 5.22605 173 ft 2 kts 34°
2026-05-06 21:07 60.28820 5.22594 173 ft 4 kts 34°
2026-05-06 21:07 60.28797 5.22563 173 ft 4 kts 34°
2026-05-06 21:07 60.28775 5.22533 173 ft 3 kts 34°
2026-05-06 21:08 60.28772 5.22528 173 ft 1 kts 34°
2026-05-06 21:10 60.28778 5.22530 173 ft 4 kts
2026-05-06 21:10 60.28803 5.22416 173 ft 14 kts 270°
2026-05-06 21:10 60.28864 5.22299 173 ft 14 kts 348°
2026-05-06 21:10 60.28955 5.22271 173 ft 14 kts 354°
2026-05-06 21:11 60.29083 5.22228 173 ft 25 kts 349°
2026-05-06 21:11 60.29308 5.22149 177 ft 39 kts 351°
2026-05-06 21:11 60.29580 5.22058 171 ft 40 kts 351°
2026-05-06 21:11 60.29849 5.21974 167 ft 38 kts 352°
2026-05-06 21:12 60.30096 5.21897 170 ft 35 kts 351°
2026-05-06 21:12 60.30326 5.21818 170 ft 32 kts 351°
2026-05-06 21:12 60.30536 5.21747 174 ft 30 kts 349°
2026-05-06 21:12 60.30665 5.21568 177 ft 23 kts 257°
2026-05-06 21:13 60.30608 5.21401 178 ft 12 kts 172°
2026-05-06 21:13 60.30474 5.21448 170 ft 43 kts 170°
2026-05-06 21:13 60.29931 5.21631 173 ft 112 kts 170°
2026-05-06 21:13 60.28980 5.21935 254 ft 158 kts 172°
2026-05-06 21:14 60.27876 5.22230 989 ft 157 kts 173°
2026-05-06 21:14 60.26720 5.22537 1506 ft 182 kts 173°
2026-05-06 21:14 60.25381 5.22197 1789 ft 210 kts 209°
2026-05-06 21:14 60.24160 5.20434 2122 ft 226 kts 218°
2026-05-06 21:15 60.22843 5.18453 2459 ft 246 kts 217°
2026-05-06 21:15 60.21431 5.16381 3129 ft 254 kts 217°
2026-05-06 21:15 60.19995 5.14313 4122 ft 253 kts 217°
2026-05-06 21:15 60.18555 5.12267 5031 ft 255 kts 217°
2026-05-06 21:16 60.17093 5.10215 5906 ft 258 kts 217°
2026-05-06 21:16 60.15610 5.08150 6775 ft 260 kts 217°
2026-05-06 21:16 60.14113 5.06079 7589 ft 263 kts 217°
2026-05-06 21:16 60.12591 5.03986 8433 ft 266 kts 217°
2026-05-06 21:17 60.11055 5.01882 9242 ft 269 kts 217°
2026-05-06 21:17 60.09494 4.99755 10059 ft 272 kts 218°
2026-05-06 21:17 60.07902 4.97587 10534 ft 287 kts 218°
2026-05-06 21:17 60.06227 4.95304 10714 ft 310 kts 218°
2026-05-06 21:18 60.04357 4.92762 10893 ft 332 kts 218°
2026-05-06 21:18 60.02407 4.90123 11063 ft 352 kts 218°
2026-05-06 21:18 60.00330 4.87324 11393 ft 365 kts 218°
2026-05-06 21:18 59.98208 4.84478 12000 ft 369 kts 218°
2026-05-06 21:19 59.96065 4.81615 12764 ft 370 kts 218°
2026-05-06 21:19 59.93920 4.78753 13520 ft 372 kts 219°
2026-05-06 21:19 59.91758 4.75872 14210 ft 375 kts 219°
2026-05-06 21:19 59.89578 4.72970 14853 ft 378 kts 219°
2026-05-06 21:20 59.87378 4.70042 15523 ft 381 kts 219°
2026-05-06 21:20 59.85913 4.68096 15964 ft 383 kts 219°
2026-05-06 21:20 59.82933 4.64142 16841 ft 387 kts 219°
2026-05-06 21:20 59.80679 4.61156 17469 ft 390 kts 219°
2026-05-06 21:21 59.78441 4.58198 18090 ft 393 kts 219°
2026-05-06 21:21 59.76157 4.55184 18670 ft 395 kts 219°
2026-05-06 21:21 59.73856 4.52152 19222 ft 398 kts 219°
2026-05-06 21:21 59.71544 4.49113 19787 ft 399 kts 219°
2026-05-06 21:22 59.69224 4.46067 20320 ft 401 kts 220°
2026-05-06 21:22 59.66889 4.43006 20859 ft 404 kts 220°
2026-05-06 21:22 59.64534 4.39923 21377 ft 406 kts 220°
2026-05-06 21:22 59.62177 4.36842 21880 ft 408 kts 220°
2026-05-06 21:23 59.59798 4.33738 22377 ft 410 kts 220°
2026-05-06 21:23 59.58215 4.31677 22696 ft 412 kts 220°
2026-05-06 21:23 59.55031 4.27538 23315 ft 415 kts 220°
2026-05-06 21:23 59.52611 4.24397 23672 ft 418 kts 219°
2026-05-06 21:24 59.50167 4.21228 23897 ft 423 kts 219°
2026-05-06 21:24 59.47697 4.18030 24236 ft 426 kts 219°
2026-05-06 21:24 59.45216 4.14829 24609 ft 427 kts 219°
2026-05-06 21:24 59.42724 4.11620 24957 ft 429 kts 219°
2026-05-06 21:25 59.40223 4.08405 25280 ft 431 kts 219°
2026-05-06 21:25 59.37701 4.05167 25586 ft 434 kts 219°
2026-05-06 21:25 59.36026 4.03022 25789 ft 435 kts 219°
2026-05-06 21:25 59.33550 3.99854 26088 ft 437 kts 219°
2026-05-06 21:26 59.31020 3.96622 26454 ft 437 kts 219°
2026-05-06 21:26 59.28477 3.93382 26920 ft 436 kts 219°
2026-05-06 21:26 59.25942 3.90159 27383 ft 434 kts 220°